User: anonymous   Login
Location: ??????
(36.0418°N, 43.6351°E)
Time: 00:35:22
(UTC+00:00)
Language:

Cosmos 883 Rocket - Orbit

View from above orbital plane
View from above orbital plane
View from above satellite
View from above satellite

Ground track
Ground track

The orbit data is extracted from the following two-line orbital elements,

1 09613U 76122B   21127.58473957  .00000031  00000-0  15748-4 0  9991
2 09613  82.9545 177.2644 0028698 267.4410  92.3462 13.77477091230616
Epoch (UTC): 07 May 2021 14:02:01
Eccentricity: 0.0028698
inclination: 82.9545°
perigee height: 952 km
apogee height: 994 km
right ascension of ascending node: 177.2644°
argument of perigee: 267.4410°
revolutions per day: 13.77477091
mean anomaly at epoch: 92.3462°
orbit number at epoch: 23061

The dashed part of the orbit path shows where the satellite is in the earth's shadow,  

DLR